"2010-06-06 00:00:00",176140,3.348,112.6,4.099,0.255,21.76,109.5787,23.81,24.7,36.16,0,111,13.19,24.65,74.6
"2010-06-06 00:00:30",176141,3.866,112.5,5.061,0.284,21.78,109.5784,23.81,24.69,36.13,0,111,13.19,24.65,74.5
"2010-06-06 00:01:00",176142,2.837,113.5,2.48,0.266,21.76,109.5784,23.81,24.69,36.16,0,111,13.19,24.65,75.5
"2010-06-06 00:01:30",176143,3.022,120.9,4.454,0.176,21.74,109.5784,23.81,24.69,36.23,0,111,13.19,24.65,82.9
"2010-06-06 00:02:00",176144,3.599,128.4,2.781,0.228,21.77,109.5784,23.81,24.69,36.24,0,111,13.19,24.65,90.4
"2010-06-06 00:02:30",176145,3.831,122.4,3.921,0.241,21.79,109.5784,23.81,24.68,36.23,0,111,13.18,24.65,84.4
"2010-06-06 00:03:00",176146,4.083,122.6,6.827,0.273,21.8,109.5784,23.81,24.69,36.51,0,111,13.18,24.65,84.6
"2010-06-06 00:03:30",176147,4.154,130,1.758,0.251,21.78,109.5784,23.81,24.69,36.6,0,111,13.18,24.65,92.0
"2010-06-06 00:04:00",176148,3.576,133,5.47,0.263,21.79,109.5784,23.81,24.69,36.55,0,111,13.18,24.65,95.0
"2010-06-06 00:04:30",176149,3.227,134.3,2.726,0.185,21.79,109.5784,23.81,24.7,36.57,0,111,13.18,24.65,96.3
"2010-06-06 00:05:00",176150,3.129,122.7,9.35,0.163,21.77,109.5784,23.81,24.69,36.57,0,111,13.19,24.65,84.7
"2010-06-06 00:05:30",176151,3.326,108.8,4.888,0.259,21.78,109.5784,23.81,24.67,36.58,0,111,13.19,24.65,70.8
"2010-06-06 00:06:00",176152,3.607,96.2,3.008,0.402,21.73,109.5784,23.81,24.68,36.75,0,111,13.19,24.65,58.2
"2010-06-06 00:06:30",176153,4.292,98,2.869,0.114,21.79,109.5739,23.8,24.67,36.9,0,111,13.19,24.63,60.0
"2010-06-06 00:07:00",176154,3.852,98.8,2.983,0.087,21.77,109.5604,23.77,24.66,36.94,0,111,13.19,24.60,60.8
"2010-06-06 00:07:30",176155,4.007,103.9,4.591,0.202,21.78,109.5528,23.75,24.67,37,0,111,13.19,24.58,65.9
"2010-06-06 00:08:00",176156,3.858,103.9,3.162,0.262,21.8,109.5486,23.73,24.65,37.02,0,111,13.19,24.57,65.9
"2010-06-06 00:08:30",176157,4.242,98.7,1.792,0.181,21.8,109.5447,23.72,24.64,37.05,0,111,13.19,24.56,60.7
"2010-06-06 00:09:00",176158,4.384,95,2.604,0.14,21.78,109.5447,23.72,24.63,37.11,0,111,13.19,24.56,57.0
"2010-06-06 00:09:30",176159,4.174,103.1,4.146,0.324,21.8,109.5447,23.72,24.63,37.06,0,111,13.19,24.56,65.1
"2010-06-06 00:10:00",176160,3.913,106.3,3.911,0.256,21.78,109.5447,23.72,24.63,37.02,0,111,13.19,24.56,68.3
"2010-06-06 00:10:30",176161,3.921,98.4,4.706,0.286,21.74,109.5447,23.72,24.63,37.09,0,111,13.19,24.56,60.4
"2010-06-06 00:11:00",176162,4.074,98.9,2.644,0.221,21.75,109.5447,23.72,24.62,37.09,0,111,13.19,24.56,60.9
"2010-06-06 00:11:30",176163,3.994,93.9,4.702,0.224,21.74,109.5447,23.72,24.61,37.08,0,111,13.19,24.56,55.9
"2010-06-06 00:12:00",176164,3.86,89,4.283,0.216,21.75,109.5391,23.71,24.61,37.2,0,111,13.19,24.55,51.0
"2010-06-06 00:12:30",176165,3.764,94.8,2.072,0.263,21.74,109.5217,23.67,24.59,37.24,0,111,13.19,24.50,56.8
"2010-06-06 00:13:00",176166,3.36,95,3.928,0.372,21.7,109.5157,23.65,24.58,37.71,0,111,13.19,24.48,57.0
"2010-06-06 00:13:30",176167,4.572,84.9,2.749,0.147,21.71,109.5119,23.64,24.58,37.49,0,111,13.19,24.48,46.9
"2010-06-06 00:14:00",176168,4.277,87.1,3.991,0.313,21.76,109.5122,23.64,24.57,37.38,0,111,13.19,24.48,49.1
"2010-06-06 00:14:30",176169,4.054,84.7,2.822,0.221,21.75,109.5122,23.64,24.56,37.6,0,111,13.19,24.48,46.7
"2010-06-06 00:15:00",176170,3.827,84.9,4.245,0.324,21.78,109.5119,23.64,24.55,37.8,0,111,13.2,24.48,46.9
"2010-06-06 00:15:30",176171,3.673,102.6,5.133,0.106,21.79,109.5119,23.64,24.55,37.83,0,111,13.2,24.48,64.6
"2010-06-06 00:16:00",176172,3.621,107.5,2.151,0.068,21.81,109.5125,23.64,24.56,37.64,0,111,13.2,24.48,69.5
"2010-06-06 00:16:30",176173,3.507,108.2,2.38,0.107,21.82,109.5134,23.64,24.53,37.46,0,111,13.19,24.48,70.2
"2010-06-06 00:17:00",176174,3.513,107.9,1.662,0.12,21.86,109.5128,23.64,24.55,37.34,0,111,13.19,24.48,69.9
"2010-06-06 00:17:30",176175,3.315,106.1,2.116,0.081,21.84,109.514,23.65,24.55,37.17,0,111,13.19,24.48,68.1
"2010-06-06 00:18:00",176176,3.702,104.5,1.632,0.177,21.83,109.5171,23.65,24.55,37.02,0,111,13.19,24.49,66.5
"2010-06-06 00:18:30",176177,3.618,107.4,2.143,0.149,21.86,109.5236,23.67,24.55,37.18,0,111,13.19,24.51,69.4
"2010-06-06 00:19:00",176178,3.533,108.3,4.155,0.243,21.8,109.526,23.68,24.54,37.17,0,111,13.19,24.51,70.3
"2010-06-06 00:19:30",176179,3.928,96.8,3.298,0.093,21.81,109.5304,23.69,24.54,36.94,0,111,13.19,24.52,58.8
"2010-06-06 00:20:00",176180,3.68,99,2.829,0.193,21.88,109.5326,23.69,24.54,36.9,0,111,13.19,24.53,61.0
"2010-06-06 00:20:30",176181,3.881,102.6,4.266,0.315,21.86,109.5323,23.69,24.54,36.76,0,111,13.19,24.53,64.6
"2010-06-06 00:21:00",176182,3.715,100.5,4.429,0.337,21.88,109.536,23.7,24.54,36.67,0,111,13.19,24.54,62.5
"2010-06-06 00:21:30",176183,4.514,95.4,2.863,0.297,21.83,109.5359,23.7,24.56,36.67,0,111,13.19,24.54,57.4
"2010-06-06 00:22:00",176184,3.585,101.3,1.664,0.2,21.86,109.5369,23.7,24.54,36.48,0,111,13.2,24.54,63.3
"2010-06-06 00:22:30",176185,3.28,103,2.258,0.14,21.88,109.5387,23.71,24.55,36.29,0,111,13.2,24.54,65.0
"2010-06-06 00:23:00",176186,3.66,95.8,3.593,0.183,21.88,109.5387,23.71,24.56,36.2,0,111,13.2,24.54,57.8
"2010-06-06 00:23:30",176187,4.426,95.3,1.051,0.223,21.84,109.539,23.71,24.55,36.45,0,111,13.2,24.54,57.3
"2010-06-06 00:24:00",176188,4.245,98,2.125,0.072,21.91,109.5387,23.71,24.56,36.51,0,111,13.2,24.54,60.0
"2010-06-06 00:24:30",176189,4.218,100.2,1.082,0.083,21.89,109.5387,23.71,24.55,36.58,0,111,13.2,24.54,62.2
"2010-06-06 00:25:00",176190,4.048,101.5,1.565,0.101,21.89,109.539,23.71,24.55,36.87,0,111,13.2,24.54,63.5
"2010-06-06 00:25:30",176191,4.24,100.6,0.888,0.094,21.88,109.5378,23.71,24.55,37.09,0,111,13.2,24.54,62.6
"2010-06-06 00:26:00",176192,3.952,100.4,2.126,0.128,21.87,109.5368,23.7,24.55,36.8,0,111,13.2,24.54,62.4
"2010-06-06 00:26:30",176193,3.401,106.9,2.298,0.127,21.93,109.539,23.71,24.55,36.3,0,111,13.2,24.54,68.9
"2010-06-06 00:27:00",176194,3.208,106,3.108,0.136,21.9,109.5405,23.71,24.54,36.31,0,111,13.2,24.55,68.0
"2010-06-06 00:27:30",176195,3.296,102.9,1.285,0.064,21.88,109.5402,23.71,24.56,36.74,0,111,13.2,24.55,64.9
"2010-06-06 00:28:00",176196,3.133,107.8,2.129,0.118,21.9,109.5411,23.72,24.58,36.43,0,111,13.2,24.55,69.8
"2010-06-06 00:28:30",176197,3.047,110.5,2.115,0.107,21.87,109.543,23.72,24.57,36.57,0,111,13.2,24.56,72.5
"2010-06-06 00:29:00",176198,2.918,101.6,2.731,0.042,21.9,109.5433,23.72,24.57,36.58,0,111,13.2,24.56,63.6
"2010-06-06 00:29:30",176199,3.199,101.1,1.954,0.168,21.89,109.5451,23.73,24.58,36.63,0,111,13.2,24.56,63.1
"2010-06-06 00:30:00",176200,3.318,104,2.694,0.145,21.88,109.5457,23.73,24.58,36.73,0,111,13.2,24.56,66.0
"2010-06-06 00:30:30",176201,3.319,107.6,1.818,0.14,21.91,109.547,23.73,24.59,36.84,0,111,13.2,24.57,69.6
"2010-06-06 00:31:00",176202,3.336,105.2,1.37,0.089,21.89,109.547,23.73,24.6,36.98,0,111,13.2,24.57,67.2
"2010-06-06 00:31:30",176203,3.013,108.9,3.639,0.193,21.91,109.5473,23.73,24.6,37.01,0,111,13.2,24.57,70.9
"2010-06-06 00:32:00",176204,3.316,105.4,3.188,0.049,21.92,109.5476,23.73,24.59,37.03,0,111,13.2,24.57,67.4
"2010-06-06 00:32:30",176205,3.23,108.2,4,0.121,21.89,109.5476,23.73,24.59,37.06,0,111,13.2,24.57,70.2
"2010-06-06 00:33:00",176206,3.07,113.2,5.205,0.208,21.9,109.5479,23.73,24.6,37.07,0,111,13.2,24.57,75.2
"2010-06-06 00:33:30",176207,3.114,118.7,1.398,0.078,21.94,109.5479,23.73,24.59,36.92,0,111,13.2,24.57,80.7
"2010-06-06 00:34:00",176208,2.892,116,1.417,0.076,21.94,109.5476,23.73,24.59,36.99,0,111,13.2,24.57,78.0
"2010-06-06 00:34:30",176209,3.008,116,2.879,0.049,21.92,109.5479,23.73,24.6,37.03,0,111,13.2,24.57,78.0
"2010-06-06 00:35:00",176210,3.005,114.5,3.455,0.109,21.91,109.5479,23.73,24.6,37,0,111,13.2,24.57,76.5
"2010-06-06 00:35:30",176211,3.189,108.9,1.148,0.088,21.95,109.5476,23.73,24.59,36.97,0,111,13.19,24.57,70.9
"2010-06-06 00:36:00",176212,3.263,113.1,1.399,0.077,21.91,109.5479,23.73,24.58,36.94,0,111,13.2,24.57,75.1
"2010-06-06 00:36:30",176213,3.428,115.8,2.23,0.104,21.98,109.5479,23.73,24.59,36.65,0,111,13.2,24.57,77.8
"2010-06-06 00:37:00",176214,3.29,116.4,1.463,0.068,21.9,109.5479,23.73,24.59,36.63,0,111,13.2,24.57,78.4
"2010-06-06 00:37:30",176215,3.55,117.7,1.628,0.08,21.91,109.5479,23.73,24.61,36.61,0,111,13.2,24.57,79.7
"2010-06-06 00:38:00",176216,3.758,115.7,2.273,0.108,21.75,109.5479,23.73,24.61,36.67,0,111,13.2,24.57,77.7
"2010-06-06 00:38:30",176217,3.69,118.3,1.695,0.123,21.78,109.5479,23.73,24.61,36.6,0,111,13.2,24.57,80.3
"2010-06-06 00:39:00",176218,3.854,117.6,1.728,0.067,21.81,109.5479,23.73,24.61,36.56,0,111,13.2,24.57,79.6
"2010-06-06 00:39:30",176219,4.174,118.1,1.93,0.14,21.82,109.5485,23.73,24.63,36.43,0,111,13.2,24.57,80.1
"2010-06-06 00:40:00",176220,4.307,116.8,1.131,0.158,21.85,109.549,23.74,24.61,36.22,0,111,13.2,24.57,78.8
"2010-06-06 00:40:30",176221,4.352,113.8,0.989,0.087,21.87,109.5485,23.73,24.62,36.36,0,111,13.2,24.57,75.8
"2010-06-06 00:41:00",176222,4.469,113.6,3.269,0.136,21.9,109.5479,23.73,24.63,36.47,0,111,13.2,24.57,75.6
"2010-06-06 00:41:30",176223,4.36,105.1,1.582,0.152,21.86,109.5479,23.73,24.62,36.88,0,111,13.2,24.57,67.1
"2010-06-06 00:42:00",176224,4.139,105.4,1.603,0.153,21.89,109.5479,23.73,24.61,36.98,0,111,13.2,24.57,67.4
"2010-06-06 00:42:30",176225,4.126,108.7,1.41,0.091,21.91,109.5479,23.73,24.61,36.86,0,111,13.2,24.57,70.7
"2010-06-06 00:43:00",176226,4.25,115.8,1.914,0.123,21.92,109.5479,23.73,24.6,36.84,0,111,13.2,24.57,77.8
"2010-06-06 00:43:30",176227,3.937,109.7,5.726,0.277,21.97,109.5479,23.73,24.59,36.95,0,110.9,13.21,24.57,71.7
"2010-06-06 00:44:00",176228,4.392,108.2,2.435,0.198,21.9,109.5479,23.73,24.6,37.21,0,111,13.2,24.57,70.2
"2010-06-06 00:44:30",176229,4.488,105.1,3.917,0.115,21.92,109.5479,23.73,24.59,37.37,0,111,13.2,24.57,67.1
"2010-06-06 00:45:00",176230,4.287,114.6,2.11,0.083,21.92,109.5471,23.73,24.6,37.1,0,111,13.21,24.57,76.6
"2010-06-06 00:45:30",176231,4,112.9,4.425,0.145,21.94,109.5473,23.73,24.6,37.05,0,111,13.21,24.57,74.9
"2010-06-06 00:46:00",176232,3.818,108.8,2.433,0.109,21.9,109.5473,23.73,24.59,37.19,0,110.9,13.21,24.57,70.8
"2010-06-06 00:46:30",176233,4.034,106,1.934,0.194,21.94,109.5476,23.73,24.59,37.32,0,111,13.21,24.57,68.0
"2010-06-06 00:47:00",176234,4.084,109.2,3.028,0.198,21.93,109.5457,23.73,24.6,37.32,0,110.9,13.21,24.56,71.2
"2010-06-06 00:47:30",176235,3.98,116.8,2.278,0.158,21.94,109.5465,23.73,24.59,37.1,0,110.9,13.21,24.56,78.8
"2010-06-06 00:48:00",176236,3.526,119.7,2.441,0.135,21.94,109.5476,23.73,24.6,37,0,111,13.21,24.57,81.7
"2010-06-06 00:48:30",176237,3.444,111.8,3.063,0.135,21.94,109.5479,23.73,24.6,37.2,0,111,13.21,24.57,73.8
"2010-06-06 00:49:00",176238,3.69,112.2,1.938,0.172,21.96,109.5476,23.73,24.61,37.21,0,111,13.21,24.57,74.2
"2010-06-06 00:49:30",176239,3.578,114.1,1.875,0.121,21.94,109.5479,23.73,24.6,37.2,0,111,13.21,24.57,76.1
"2010-06-06 00:50:00",176240,3.619,116.8,3.246,0.179,21.94,109.5479,23.73,24.6,37.06,0,110.9,13.21,24.57,78.8
"2010-06-06 00:50:30",176241,3.674,120.9,1.587,0.072,21.96,109.5479,23.73,24.61,36.95,0,110.9,13.2,24.57,82.9
"2010-06-06 00:51:00",176242,3.896,120.2,2.319,0.211,21.98,109.5479,23.73,24.61,36.69,0,110.9,13.2,24.57,82.2
"2010-06-06 00:51:30",176243,4.107,119.6,2.432,0.088,22,109.5479,23.73,24.62,36.63,0,110.9,13.2,24.57,81.6
"2010-06-06 00:52:00",176244,4.021,120.4,1.099,0.116,21.95,109.5479,23.73,24.61,36.96,0,110.9,13.2,24.57,82.4
"2010-06-06 00:52:30",176245,4.134,120.8,0.979,0.19,22.03,109.5479,23.73,24.62,36.9,0,111,13.2,24.57,82.8
"2010-06-06 00:53:00",176246,4.492,119.3,0.672,0.098,22.05,109.5479,23.73,24.63,36.64,0,110.9,13.2,24.57,81.3
"2010-06-06 00:53:30",176247,4.399,119.5,0.831,0.04,22.07,109.5479,23.73,24.62,36.62,0,110.9,13.2,24.57,81.5
"2010-06-06 00:54:00",176248,4.403,119.7,1.462,0.062,22.06,109.5479,23.73,24.62,36.53,0,111,13.2,24.57,81.7
"2010-06-06 00:54:30",176249,4.259,118.1,1.402,0.057,22.04,109.5479,23.73,24.6,36.42,0,111,13.2,24.57,80.1
"2010-06-06 00:55:00",176250,4.198,116.7,0.768,0.063,22,109.5479,23.73,24.64,36.31,0,111,13.2,24.57,78.7
"2010-06-06 00:55:30",176251,4.118,117.2,0.55,0.06,21.94,109.5479,23.73,24.63,36.32,0,111,13.2,24.57,79.2
"2010-06-06 00:56:00",176252,4.18,116.5,1.135,0.058,21.96,109.5479,23.73,24.63,36.64,0,111,13.2,24.57,78.5
"2010-06-06 00:56:30",176253,4.111,114.8,2.144,0.062,21.99,109.5479,23.73,24.63,36.68,0,110.9,13.21,24.57,76.8
"2010-06-06 00:57:00",176254,4.081,112.1,0.666,0.1,22.06,109.5479,23.73,24.63,36.63,0,111,13.21,24.57,74.1
"2010-06-06 00:57:30",176255,4.118,112.7,1.519,0.075,22.04,109.5479,23.73,24.63,36.72,0,111,13.21,24.57,74.7
"2010-06-06 00:58:00",176256,3.868,111.4,2.224,0.171,21.99,109.5479,23.73,24.62,37.03,0,111,13.21,24.57,73.4
"2010-06-06 00:58:30",176257,3.746,112,2.361,0.076,21.97,109.5479,23.73,24.63,36.92,0,111,13.21,24.57,74.0
"2010-06-06 00:59:00",176258,3.815,112.2,1.443,0.135,21.96,109.5471,23.73,24.62,37.04,0,111,13.21,24.57,74.2
"2010-06-06 00:59:30",176259,3.975,112.8,1.258,0.085,21.99,109.5395,23.71,24.6,37.28,0,111,13.21,24.55,74.8
"2010-06-06 01:00:00",176260,3.931,113.9,2.039,0.099,21.99,109.5277,23.68,24.61,37.37,0,111,13.21,24.52,75.9
"2010-06-06 01:00:30",176261,3.909,111.4,1.051,0.06,21.98,109.522,23.67,24.61,37.35,0,111,13.21,24.50,73.4
"2010-06-06 01:01:00",176262,4,114.2,3.213,0.084,21.96,109.5204,23.66,24.59,37.5,0,111,13.21,24.50,76.2
"2010-06-06 01:01:30",176263,4.313,118.2,0.903,0.102,22.03,109.5187,23.66,24.6,36.96,0,110.9,13.21,24.49,80.2
"2010-06-06 01:02:00",176264,4.525,118,0.886,0.067,22.02,109.519,23.66,24.58,36.65,0,111,13.21,24.49,80.0
"2010-06-06 01:02:30",176265,4.727,118.9,0.609,0.069,22.03,109.5175,23.66,24.59,36.4,0,110.9,13.21,24.49,80.9
"2010-06-06 01:03:00",176266,4.76,118.9,0.734,0.064,22.05,109.5198,23.66,24.58,36.13,0,111,13.21,24.50,80.9
"2010-06-06 01:03:30",176267,4.824,119.9,0.935,0.089,21.96,109.5243,23.67,24.59,36.09,0,111,13.21,24.51,81.9
"2010-06-06 01:04:00",176268,5.038,118.2,1.445,0.192,21.98,109.5268,23.68,24.59,36.14,0,111,13.21,24.51,80.2
"2010-06-06 01:04:30",176269,5.156,117.1,1.022,0.069,22,109.5361,23.7,24.61,36.04,0,111,13.21,24.54,79.1
"2010-06-06 01:05:00",176270,4.973,116.3,1.212,0.071,22.06,109.5434,23.72,24.6,36.09,0,111,13.21,24.56,78.3
"2010-06-06 01:05:30",176271,5.067,114.5,1.982,0.126,22.02,109.5457,23.73,24.6,36.11,0,110.9,13.21,24.56,76.5
"2010-06-06 01:06:00",176272,5.065,112.5,0.912,0.102,21.9,109.5457,23.73,24.62,36.65,0,111,13.21,24.56,74.5
"2010-06-06 01:06:30",176273,4.838,113.7,1.2,0.089,21.98,109.5363,23.7,24.62,36.79,0,111,13.21,24.54,75.7
"2010-06-06 01:07:00",176274,4.713,114.2,1.466,0.073,21.95,109.5274,23.68,24.61,36.88,0,110.9,13.21,24.51,76.2
"2010-06-06 01:07:30",176275,4.707,120.7,1.528,0.053,22.01,109.5275,23.68,24.6,36.28,0,110.9,13.21,24.52,82.7
"2010-06-06 01:08:00",176276,4.62,122.1,1.518,0.079,22.04,109.5271,23.68,24.59,36.02,0,111,13.21,24.51,84.1
"2010-06-06 01:08:30",176277,4.558,121.4,0.893,0.075,22.04,109.5358,23.7,24.6,35.9,0,110.9,13.2,24.54,83.4
"2010-06-06 01:09:00",176278,4.694,119.7,1.288,0.065,22.02,109.5475,23.73,24.61,35.97,0,110.9,13.2,24.57,81.7
"2010-06-06 01:09:30",176279,4.774,118.7,1.095,0.118,22.08,109.5511,23.74,24.62,36.04,0,111,13.2,24.58,80.7
"2010-06-06 01:10:00",176280,4.877,117.9,0.707,0.035,22.09,109.5501,23.74,24.62,36.25,0,110.9,13.2,24.57,79.9
"2010-06-06 01:10:30",176281,4.871,119.2,0.955,0.07,22,109.551,23.74,24.63,36.13,0,110.9,13.2,24.58,81.2
"2010-06-06 01:11:00",176282,5.007,119.1,0.474,0.055,22.03,109.5485,23.73,24.62,35.98,0,110.9,13.2,24.57,81.1
"2010-06-06 01:11:30",176283,5.01,120.4,0.791,0.045,22.05,109.5483,23.73,24.63,35.95,0,110.9,13.2,24.57,82.4
"2010-06-06 01:12:00",176284,4.96,121.2,1.442,0.07,22.07,109.5501,23.74,24.61,35.97,0,110.9,13.2,24.57,83.2
"2010-06-06 01:12:30",176285,4.893,122.6,0.67,0.058,22.07,109.5501,23.74,24.63,35.7,0,110.9,13.21,24.57,84.6
"2010-06-06 01:13:00",176286,4.973,122,0.992,0.081,22.1,109.5504,23.74,24.62,35.53,0,110.9,13.21,24.57,84.0
"2010-06-06 01:13:30",176287,4.837,123.4,0.708,0.049,22.03,109.5498,23.74,24.63,35.49,0,110.9,13.21,24.57,85.4
"2010-06-06 01:14:00",176288,4.698,122.9,1.491,0.055,22.02,109.5538,23.75,24.63,35.59,0,111,13.21,24.58,84.9
"2010-06-06 01:14:30",176289,4.65,123.5,1.196,0.055,22.01,109.551,23.74,24.63,35.56,0,110.9,13.21,24.58,85.5
"2010-06-06 01:15:00",176290,4.606,123.9,0.507,0.088,22.07,109.5504,23.74,24.64,35.63,0,110.9,13.21,24.57,85.9
"2010-06-06 01:15:30",176291,4.566,124.1,0.36,0.037,22.06,109.551,23.74,24.65,35.74,0,110.9,13.21,24.58,86.1
"2010-06-06 01:16:00",176292,4.487,123.4,0.664,0.057,22.02,109.5519,23.74,24.64,35.75,0,110.9,13.21,24.58,85.4
"2010-06-06 01:16:30",176293,4.476,124.8,1.097,0.066,22.09,109.5501,23.74,24.64,35.73,0,110.9,13.21,24.57,86.8
"2010-06-06 01:17:00",176294,4.461,126.7,1.464,0.088,22.09,109.5525,23.74,24.64,35.79,0,110.9,13.21,24.58,88.7
"2010-06-06 01:17:30",176295,4.49,127.2,0.64,0.045,22.12,109.5513,23.74,24.63,35.92,0,110.9,13.21,24.58,89.2
"2010-06-06 01:18:00",176296,4.563,126.9,0.662,0.033,22.12,109.5519,23.74,24.64,35.91,0,110.9,13.21,24.58,88.9
"2010-06-06 01:18:30",176297,4.611,128.5,1.021,0.069,22.08,109.5525,23.74,24.63,35.86,0,110.9,13.21,24.58,90.5
"2010-06-06 01:19:00",176298,4.654,129.8,0.89,0.055,22.01,109.5522,23.74,24.65,35.74,0,110.9,13.21,24.58,91.8
"2010-06-06 01:19:30",176299,4.828,130.7,1.208,0.055,22.1,109.5513,23.74,24.65,35.4,0,110.9,13.21,24.58,92.7
"2010-06-06 01:20:00",176300,4.888,131.1,1.386,0.113,22.11,109.5504,23.74,24.65,35.29,0,110.9,13.21,24.57,93.1
"2010-06-06 01:20:30",176301,5.002,130.3,0.488,0.059,22.09,109.5522,23.74,24.64,35.37,0,110.9,13.21,24.58,92.3
"2010-06-06 01:21:00",176302,5.005,130.6,0.925,0.068,22.11,109.5507,23.74,24.64,35.37,0,110.9,13.21,24.58,92.6
"2010-06-06 01:21:30",176303,5.062,131,0.49,0.058,22.1,109.5513,23.74,24.65,35.45,0,110.9,13.21,24.58,93.0
"2010-06-06 01:22:00",176304,5.082,131.2,0.376,0.044,22.05,109.5513,23.74,24.65,35.72,0,110.9,13.21,24.58,93.2
"2010-06-06 01:22:30",176305,5.189,131.5,0.321,0.048,21.99,109.5531,23.75,24.65,35.7,0,110.9,13.21,24.58,93.5
"2010-06-06 01:23:00",176306,5.239,132.2,0.966,0.042,21.98,109.5494,23.74,24.65,35.55,0,110.9,13.21,24.57,94.2
"2010-06-06 01:23:30",176307,5.176,132.1,0.918,0.087,21.97,109.5501,23.74,24.65,35.63,0,110.9,13.21,24.57,94.1
"2010-06-06 01:24:00",176308,5.079,133.1,0.621,0.036,21.96,109.5498,23.74,24.65,35.85,0,110.9,13.21,24.57,95.1
"2010-06-06 01:24:30",176309,5.156,133.3,0.48,0.069,22.04,109.5519,23.74,24.66,35.5,0,110.9,13.21,24.58,95.3
"2010-06-06 01:25:00",176310,5.124,132.6,0.578,0.035,22.05,109.5501,23.74,24.66,35.73,0,110.9,13.21,24.57,94.6
"2010-06-06 01:25:30",176311,5.228,131,1.256,0.109,22,109.5528,23.75,24.67,35.8,0,110.9,13.21,24.58,93.0
"2010-06-06 01:26:00",176312,5.203,128.6,1.465,0.048,21.96,109.5513,23.74,24.66,35.94,0,110.9,13.21,24.58,90.6
"2010-06-06 01:26:30",176313,5.362,127.9,0.622,0.103,22.07,109.5538,23.75,24.66,35.95,0,110.9,13.21,24.58,89.9
"2010-06-06 01:27:00",176314,5.442,126.2,0.885,0.04,22.05,109.5513,23.74,24.66,36.09,0,110.9,13.21,24.58,88.2
"2010-06-06 01:27:30",176315,5.328,126.6,0.995,0.06,22.02,109.5496,23.74,24.65,36.11,0,110.9,13.21,24.57,88.6
"2010-06-06 01:28:00",176316,5.338,126.9,0.825,0.056,22.09,109.5347,23.7,24.64,36.03,0,110.9,13.21,24.53,88.9
"2010-06-06 01:28:30",176317,5.295,126.9,0.825,0.065,22.08,109.5262,23.68,24.64,35.99,0,110.9,13.21,24.51,88.9
"2010-06-06 01:29:00",176318,5.273,125.3,1.074,0.069,21.99,109.5273,23.68,24.64,36.01,0,110.9,13.21,24.51,87.3
"2010-06-06 01:29:30",176319,5.323,125.3,1.13,0.062,21.96,109.5273,23.68,24.63,35.97,0,110.9,13.21,24.51,87.3
"2010-06-06 01:30:00",176320,5.328,124.7,0.664,0.067,21.99,109.5242,23.67,24.63,35.95,0,110.9,13.21,24.51,86.7
"2010-06-06 01:30:30",176321,5.438,123.7,0.853,0.074,21.92,109.5233,23.67,24.61,36.05,0,110.9,13.22,24.50,85.7
"2010-06-06 01:31:00",176322,5.502,124.5,0.794,0.124,22,109.5234,23.67,24.61,35.93,0,110.9,13.22,24.50,86.5
"2010-06-06 01:31:30",176323,5.549,124.8,1.273,0.059,21.91,109.5191,23.66,24.6,35.98,0,110.9,13.22,24.49,86.8
"2010-06-06 01:32:00",176324,5.512,124.1,0.879,0.049,21.87,109.5228,23.67,24.62,36.04,0,110.9,13.22,24.50,86.1
"2010-06-06 01:32:30",176325,5.403,122,1.287,0.063,21.89,109.5231,23.67,24.6,36.46,0,110.9,13.22,24.50,84.0
"2010-06-06 01:33:00",176326,5.517,120.9,1.166,0.06,21.92,109.5246,23.67,24.6,36.71,0,110.9,13.22,24.51,82.9
"2010-06-06 01:33:30",176327,5.559,121.3,1.223,0.093,21.95,109.5228,23.67,24.61,36.72,0,110.9,13.22,24.50,83.3
"2010-06-06 01:34:00",176328,5.53,121.8,0.779,0.045,21.88,109.5228,23.67,24.61,36.46,0,110.9,13.22,24.50,83.8
"2010-06-06 01:34:30",176329,5.346,120.8,0.791,0.081,21.81,109.5231,23.67,24.59,36.75,0,110.9,13.22,24.50,82.8
"2010-06-06 01:35:00",176330,5.354,121.6,1.273,0.137,21.76,109.5219,23.67,24.6,36.88,0,110.9,13.22,24.50,83.6
"2010-06-06 01:35:30",176331,5.391,123,0.828,0.077,21.7,109.5198,23.66,24.56,36.59,0,110.9,13.22,24.50,85.0
"2010-06-06 01:36:00",176332,5.357,123.7,0.697,0.047,21.69,109.5154,23.65,24.56,36.77,0,110.9,13.22,24.48,85.7
"2010-06-06 01:36:30",176333,5.345,123.4,0.661,0.068,21.71,109.4999,23.61,24.55,36.87,0,110.9,13.22,24.44,85.4
"2010-06-06 01:37:00",176334,5.564,123.2,0.967,0.123,21.69,109.491,23.59,24.55,36.74,0,110.9,13.22,24.42,85.2
"2010-06-06 01:37:30",176335,5.659,123.1,1.064,0.064,21.74,109.4923,23.59,24.53,36.56,0,110.9,13.22,24.42,85.1
"2010-06-06 01:38:00",176336,5.491,122,1.019,0.092,21.74,109.4879,23.58,24.54,36.76,0,110.9,13.22,24.41,84.0
"2010-06-06 01:38:30",176337,5.403,123.6,1.125,0.054,21.73,109.4857,23.57,24.53,36.71,0,110.9,13.22,24.41,85.6
"2010-06-06 01:39:00",176338,5.543,124.4,0.604,0.054,21.72,109.4873,23.58,24.52,36.47,0,110.9,13.22,24.41,86.4
"2010-06-06 01:39:30",176339,5.675,124.5,0.717,0.055,21.71,109.486,23.57,24.54,36.46,0,110.9,13.22,24.41,86.5
"2010-06-06 01:40:00",176340,5.971,125.2,0.322,0.095,21.73,109.4909,23.59,24.53,36.29,0,110.9,13.22,24.42,87.2
"2010-06-06 01:40:30",176341,6.067,126,0.545,0.098,21.7,109.493,23.59,24.53,36.21,0,110.9,13.22,24.43,88.0
"2010-06-06 01:41:00",176342,6.186,125.6,0.747,0.083,21.64,109.5049,23.62,24.52,36.09,0,110.9,13.22,24.46,87.6
"2010-06-06 01:41:30",176343,6.252,126.4,0.567,0.068,21.66,109.5146,23.65,24.53,36.07,0,110.9,13.21,24.48,88.4
"2010-06-06 01:42:00",176344,6.229,127.7,0.712,0.121,21.64,109.5154,23.65,24.54,36.1,0,110.9,13.21,24.48,89.7
"2010-06-06 01:42:30",176345,6.407,127.1,0.738,0.173,21.61,109.5145,23.65,24.52,36.08,0,110.9,13.21,24.48,89.1
"2010-06-06 01:43:00",176346,6.517,127.1,0.569,0.044,21.65,109.5145,23.65,24.55,36.05,0,110.9,13.21,24.48,89.1
"2010-06-06 01:43:30",176347,6.439,127.6,0.752,0.055,21.68,109.5142,23.65,24.56,35.94,0,110.9,13.21,24.48,89.6
"2010-06-06 01:44:00",176348,6.502,127.9,0.546,0.043,21.67,109.5142,23.65,24.55,35.74,0,110.9,13.21,24.48,89.9
"2010-06-06 01:44:30",176349,6.59,127.2,0.976,0.074,21.66,109.517,23.65,24.58,35.74,0,110.9,13.21,24.49,89.2
"2010-06-06 01:45:00",176350,6.921,130.7,2.172,0.126,21.68,109.5223,23.67,24.56,36.01,0,110.9,13.21,24.50,92.7
"2010-06-06 01:45:30",176351,6.847,133,0.709,0.049,21.68,109.5285,23.68,24.59,36.06,0,110.9,13.21,24.52,95.0
"2010-06-06 01:46:00",176352,6.685,128.8,0.954,0.112,21.63,109.5414,23.72,24.59,36.06,0,111,13.21,24.55,90.8
"2010-06-06 01:46:30",176353,7,130,1.495,0.121,21.62,109.5457,23.73,24.59,36.25,0,110.9,13.21,24.56,92.0
"2010-06-06 01:47:00",176354,7.627,133.1,1.546,0.259,21.5,109.5426,23.72,24.59,36.7,0,111,13.21,24.55,95.1
"2010-06-06 01:47:30",176355,7.603,129.3,4.313,0.85,21.33,109.5187,23.66,24.59,37.56,0,111,13.21,24.49,91.3
"2010-06-06 01:48:00",176356,9.17,134.7,2.826,0.489,21.1,109.5111,23.64,24.57,37.87,0,111,13.21,24.47,96.7
"2010-06-06 01:48:30",176357,8.66,136.6,0.894,0.164,21.24,109.4824,23.56,24.55,38,0,111,13.21,24.40,98.6
"2010-06-06 01:49:00",176358,8.72,132.3,2.942,0.171,21.24,109.4641,23.52,24.51,37.89,0,111,13.21,24.35,94.3
"2010-06-06 01:49:30",176359,9.15,130.9,0.94,0.234,21.23,109.4439,23.47,24.47,37.08,0,111,13.21,24.30,92.9
"2010-06-06 01:50:00",176360,9.36,130.3,0.668,0.115,21.28,109.4138,23.39,24.41,36.48,0,110.9,13.22,24.22,92.3